#timestamp,LO_Frequency,Hit 
1502049615.1,286047030.9,N
1502049635.9,286047033.5,N
1502049655.7,286047032.7,N
1502049675.5,286047032.9,N
1502049695.4,286047030.4,N
1502049715.2,286047030.1,N
1502049735.0,286047031.5,N
1502049735.9,286047031.5,N
1502049755.8,286047032.6,N
1502049775.6,286047032.9,N
1502049795.4,286047031.4,N
1502049815.3,286047031.9,N
1502049835.1,286047028.9,N
1502049836.0,286047028.9,N
1502049855.8,286047029.3,N
1502049875.7,286047031.1,N
1502049895.5,286047032.6,N
1502049915.3,286047030.5,N
1502049935.1,286047032.8,N
1502049955.9,286047032.4,N
1502049975.7,286047033.9,N
1502049995.5,286047034.4,N
1502050015.4,286047030.2,N
1502050035.2,286047034.6,N
1502050055.0,286047035.6,N
1502050055.9,286047035.6,N
1502050075.8,286047034.5,N
1502050095.6,286047034.9,N
1502050115.4,286047035.9,N
1502050135.3,286047036.3,N
1502050155.1,286047037.0,N
1502050156.0,286047037.0,N
1502050175.8,286047037.7,N
1502050195.6,286047034.8,N
1502050215.5,286047032.0,N
1502050235.3,286047036.4,N
1502050255.1,286047033.6,N
1502050275.9,286047030.1,N
1502050295.7,286047028.5,N
1502050315.5,286047032.0,N
1502050335.4,286047032.5,N
1502050355.2,286047035.5,N
1502050375.0,286047035.0,N
1502050375.9,286047035.0,N
1502050395.8,286047035.7,N
1502050415.6,286047037.3,N
1502050435.4,286047037.5,N
1502050455.2,286047033.9,N
1502050475.1,286047033.8,N
1502050476.0,286047033.8,N
1502050495.8,286047035.6,N
1502050515.6,286047032.1,N
1502050535.5,286047037.7,N
1502050555.3,286047038.3,N
1502050575.1,286047038.0,N
1502050595.9,286047034.1,N
1502050615.7,286047036.4,N
1502050635.5,286047035.8,N
1502050655.4,286047038.3,N
1502050675.2,286047039.2,N
1502050695.0,286047041.0,Y
1502050695.9,286047041.0,Y
1502050715.8,286046982.6,N
1502050735.6,286046981.6,N
1502050755.4,286046982.0,N
1502050775.3,286046982.7,N
1502050795.1,286046984.8,N
1502050796.0,286046984.8,N
1502050815.8,286046984.9,N
1502050835.7,286046985.1,N
1502050855.5,286046982.0,N
1502050875.3,286046981.7,N
1502050895.2,286046984.4,N
1502050915.9,286046985.9,N
1502050935.7,286046985.5,N
1502050955.5,286046985.4,N
1502050975.4,286046989.6,N
1502050995.2,286046990.0,N
1502051015.0,286046983.7,N
1502051015.9,286046983.7,N
1502051035.8,286046983.7,N
1502051055.6,286046982.1,N
1502051075.4,286046980.7,N
1502051095.3,286046983.4,N
1502051115.1,286046982.1,N
1502051116.0,286046982.1,N
1502051135.8,286046982.2,N
1502051155.7,286046982.8,N
1502051175.5,286046984.5,N
1502051195.3,286046985.5,N
1502051215.1,286046986.6,N
1502051235.9,286046987.3,N
1502051255.7,286046985.6,N
1502051275.5,286046983.7,N
1502051295.4,286046986.1,N
1502051315.2,286046989.0,N
1502051335.0,286046992.5,N
1502051335.9,286046992.5,N
1502051355.8,286046992.9,N
1502051375.6,286046992.2,N
1502051395.4,286046994.2,N
1502051415.3,286046990.6,N
1502051435.1,286046990.7,N
1502051436.0,286046990.7,N
1502051455.8,286046993.2,N
1502051475.7,286046991.0,N
1502051495.5,286046991.0,N
1502051515.3,286046994.3,N
1502051535.1,286046994.4,N
1502051555.9,286046991.8,N
1502051575.7,286046993.1,N
1502051595.5,286046992.0,N
1502051615.4,286046993.5,N
1502051635.2,286046992.5,N
1502051655.0,286046992.3,N
1502051655.9,286046992.3,N
1502051675.8,286046992.0,N
1502051695.6,286046990.8,N
1502051715.4,286046993.0,N
1502051735.2,286046990.6,N
1502051755.1,286046988.6,N
1502051756.0,286046988.6,N
1502051775.8,286046986.9,N
1502051795.1,286046989.2,N
1502051815.9,286046988.9,N
1502051835.7,286046993.1,N
1502051855.5,286046992.2,N
1502051875.4,286046993.4,N
1502051895.2,286046995.4,N
1502051915.0,286046993.8,N
1502051915.9,286046993.8,N
1502051935.8,286046992.8,N
1502051955.6,286046992.1,N
1502051975.4,286046993.8,N
1502051995.3,286046997.6,N
1502052015.1,286047000.7,N
1502052016.0,286047000.7,N
1502052035.8,286046998.7,N
1502052055.6,286047000.8,N
1502052075.5,286046996.7,N
1502052095.3,286046996.6,N
1502052115.1,286046998.8,N
1502052135.9,286047000.5,N
1502052155.7,286047000.0,N
1502052175.5,286046998.5,N
1502052195.4,286046996.5,N
1502052215.2,286046996.7,N
1502052235.0,286046995.5,N
1502052235.9,286046995.5,N
1502052255.8,286046995.6,N
1502052275.6,286046993.9,N
1502052295.4,286046995.7,N
1502052315.3,286046997.8,N
1502052335.1,286046997.4,N
1502052336.0,286046997.4,N
1502052355.8,286046996.3,N
1502052375.6,286046992.0,N
1502052395.5,286046996.1,N
1502052415.3,286046997.8,N
1502052435.1,286046999.3,N
1502052455.9,286047001.1,N
1502052475.7,286046998.2,N
1502052495.5,286046997.5,N
1502052515.4,286046997.3,N
1502052535.2,286046998.7,N
1502052555.0,286047001.0,N
1502052575.9,286046997.3,N
1502052595.7,286047001.2,N
1502052615.5,286046999.2,N
1502052635.3,286046995.6,N
1502052655.2,286046993.9,N
1502052675.0,286046995.0,N
1502052675.9,286046995.0,N
1502052695.7,286046997.2,N
1502052715.6,286046998.1,N
1502052735.4,286047000.5,N
1502052755.2,286047001.2,N
1502052775.1,286046993.4,N
1502052776.0,286046993.4,N
1502052795.8,286046993.7,N
1502052815.6,286046994.6,N
1502052835.5,286046993.7,N
1502052855.3,286046997.0,N
1502052875.1,286046999.1,N
1502052895.9,286046996.6,N
1502052915.7,286046996.0,N
1502052935.5,286046997.8,N
1502052955.3,286047000.7,N
1502052975.2,286046999.2,N
1502052995.0,286046999.4,N
1502052995.9,286046999.4,N
1502053015.7,286046998.2,N
1502053035.6,286046995.1,N
1502053055.4,286046992.1,N
1502053075.2,286046993.3,N
1502053095.1,286046996.3,N
1502053096.0,286046996.3,N
1502053115.8,286046993.6,N
1502053135.6,286046997.0,N
1502053155.5,286046998.3,N
1502053175.3,286046998.3,N
1502053195.1,286046998.9,N
